Regional Weather Roundup
Issued by NWS Portland, ME

Current Version | Previous Version | Text Only | Print | Product List | Glossary Off
Versions: 1 2 3 4 5 6 7 8 9 10 11 12 13 14 15 16 17 18 19 20 21 22 23 24 25 26 27 28 29 30 31 32 33 34 35 36 37 38 39 40 41 42 43 44 45 46 47 48 49 50
000 ASUS41 KGYX 220710 RWRGYX WEATHER ROUNDUP FOR MAINE AND NEW HAMPSHIRE NATIONAL WEATHER SERVICE GRAY ME 200 AM EST MON JAN 22 2018 MEZ002-005-006-010-012-015-018-020-021-024-026-027-029-220800- MAINE CITY SKY/WX TMP DP RH WIND PRES REMARKS PORTLAND CLOUDY 30 28 92 VRB6 30.22R SANFORD CLOUDY 28 27 96 CALM 30.20R BAR HARBOR CLOUDY 28 15 58 N10 30.26R WCI 19 WISCASSET CLOUDY 34 26 72 CALM 30.24R ROCKLAND CLOUDY 32 22 66 NE8 30.25R FRYEBURG CLOUDY 31 28 89 CALM 30.20R LEWISTONAUBURN CLOUDY 34 26 72 VRB3 30.22R AUGUSTA CLOUDY 31 20 63 NE7 30.23R WATERVILLE CLOUDY 30 19 63 VRB5 30.20R BANGOR CLOUDY 26 10 50 NE10 30.27R WCI 16 GREENVILLE N/A 16 5 62 N8 30.16R MILLINOCKET CLOUDY 17 7 64 CALM 30.29R HOULTON CLOUDY 14 -2 49 NW6 30.25R PRESQUE ISLE CLOUDY 7 0 73 CALM 30.27R FRENCHVILLE FAIR 5 -5 63 W10 30.20R WCI -10 CARIBOU CLOUDY 11 -4 51 NW5 30.25R $$ NHZ002-005-008-009-011-012-014-220800- NEW HAMPSHIRE CITY SKY/WX TMP DP RH WIND PRES REMARKS PORTSMOUTH CLOUDY 28 25 88 CALM 30.17S ROCHESTER MOCLDY 30 27 88 NW5 30.18R NASHUA CLOUDY 30 29 96 CALM 30.18S MANCHESTER CLOUDY 30 27 88 CALM 30.16S CONCORD CLOUDY 29 26 89 CALM 30.17S LACONIA MOCLDY 27 26 96 CALM 30.18R PLYMOUTH FAIR 25 24 98 CALM 30.19R BERLIN CLOUDY 31 25 78 NW3 30.16R WHITEFIELD CLOUDY 31 27 85 CALM 30.15R JAFFREY CLOUDY 31 30 96 CALM 30.14S KEENE CLOUDY 28 26 92 CALM 30.17S LEBANON CLOUDY 31 28 89 CALM 30.15S MT WASHINGTON FOG 18 18 100 W17 N/A VSB 1/16WCI 2 $$ VTZ005-007-008-220800- VERMONT CITY SKY/WX TMP DP RH WIND PRES REMARKS ST JOHNSBURY N/A 32 28 85 MISG 30.15R MONTPELIER CLOUDY 30 28 92 CALM 30.17R BURLINGTON CLOUDY 28 22 78 NW8 30.19R $$ MAZ007-012-024-CTZ003-RIZ002-NYZ038-NYZ072-220800- SOUTHERN NEW ENGLAND AND NY CITY SKY/WX TMP DP RH WIND PRES REMARKS BOSTON CLOUDY 35 32 88 SE6 30.19S WORCESTER LGT RAIN 36 28 73 SW6 30.15R NANTUCKET MOCLDY 32 32 100 CALM 30.21S PROVIDENCE CLOUDY 34 32 92 CALM 30.20R HARTFORD CLOUDY 35 32 88 CALM 30.17S ALBANY LGT RAIN 33 30 88 CALM 30.16S NEW YORK CITY CLOUDY 40 34 79 NE7 30.14F $$ ANZ081-ANZ082-ANZ150-NHZ014-MEZ023>029-220800- COASTAL MARINE OBSERVATIONS STATION/POSITION TIME TEMP WIND PRES WAVE AIR SEA DIR/SP/G HT/PER (UTC) (F) (DEG/KT/KT) (MB) (FT/S) MOUNT DESERT ROC 0700 34 20/ 14/ 16 1024.1R MATINICUS ROCK 0600 36 60/ 14/ 15 1022.8R ISLE OF SHOALS 0600 41 150/ 8/ 9 1021.9F JEFFREYS LEDGE 0606 43 N/A 2/10 GEORGES BANK BUO 0550 44 58 1021.2 8/ 8 $$ .............KEY.............. WCI - WIND CHILL TC - TEMPERATURE IN CELSIUS VSB - VISIBILITY IN MILES HX - HEAT INDEX FAIR- INDICATES FEW OR NO CLOUDS BELOW 12,000 FT, WITH NO SIGNIFICANT WEATHER AND/OR OBSTRUCTIONS TO VISIBILITY.

USA.gov is the U.S. government's official web portal to all federal, state and local government web resources and services.